This demonstration page uses our WeatherBlox Daily Observations layout. Learn more.

Left ArrowRight Arrow

39.01783, -85.05884

Hourly Observations for June 9, 2018

Temp ( °F °C ) Dew Point ( °F °C ) Humidity (%) Winds ( mph kmh ) Pressure ( in mb ) Visibility ( mi km ) Precip ( " mm )
12:52 am 00:52 Mostly Clear 66 18.9 62 16.7 87 87 S 5 7 30.12 1020 10 16 N/A
1:52 am 01:52 Partly Cloudy 67 19.4 62 16.7 84 84 N N/A 30.10 1019 10 16 N/A
2:52 am 02:52 Mostly Cloudy 66 18.9 61 16.1 84 84 SSW 3 6 30.09 1019 10 16 N/A
3:52 am 03:52 Clear 66 18.9 61 16.1 84 84 N N/A 30.09 1019 10 16 N/A
4:52 am 04:52 Mostly Cloudy 64 17.8 61 16.1 90 90 N N/A 30.08 1019 10 16 N/A
5:52 am 05:52 Partly Cloudy 61 16.1 59 15 93 93 S 6 9 30.07 1018 10 16 N/A
6:52 am 06:52 Partly Cloudy 66 18.9 61 16.1 84 84 SW 3 6 30.07 1018 10 16 N/A
7:52 am 07:52 Mostly Sunny 69 20.6 63 17.2 81 81 N N/A 30.09 1019 10 16 N/A
8:52 am 08:52 Mostly Sunny 74 23.3 63 17.2 69 69 SSW 3 6 30.09 1019 10 16 N/A
9:52 am 09:52 Mostly Sunny 79 26.1 65 18.3 62 62 SSW 6 9 30.09 1019 10 16 N/A
10:52 am 10:52 Mostly Sunny 82 27.8 66 18.9 58 58 SW 6 9 30.07 1018 10 16 N/A
11:52 am 11:52 Mostly Sunny 86 30 65 18.3 49 49 WNW 9 15 30.06 1018 10 16 N/A
12:52 pm 12:52 Mostly Sunny 88 31.1 65 18.3 46 46 N N/A 30.04 1017 10 16 N/A
1:52 pm 13:52 Partly Cloudy 89 31.7 64 17.8 43 43 W 7 11 30.01 1016 10 16 N/A
2:52 pm 14:52 Partly Cloudy 88 31.1 62 16.7 42 42 SSW 5 7 29.99 1016 10 16 N/A
3:52 pm 15:52 Partly Cloudy 90 32.2 64 17.8 42 42 SSW 8 13 29.97 1015 10 16 N/A
4:34 pm 16:34 Mostly Cloudy with Thunderstorms 88 31.1 64 17.8 45 45 WSW 8 13 29.94 1014 10 16 N/A
4:52 pm 16:52 Mostly Cloudy with Thunderstorms 85 29.4 65 18.3 51 51 SW 6 9 29.96 1015 10 16 N/A
5:07 pm 17:07 Mostly Cloudy 85 29.4 64 17.8 50 50 W 10 17 29.94 1014 10 16 N/A
5:52 pm 17:52 Mostly Cloudy 86 30 62 16.7 45 45 SW 9 15 29.95 1014 10 16 N/A
6:45 pm 18:45 Mostly Cloudy 77 25 62 16.7 60 60 NW 18 30 29.97 1015 10 16 N/A
6:52 pm 18:52 Mostly Cloudy 77 25 62 16.7 60 60 NW 21 33 29.97 1015 10 16 N/A
6:56 pm 18:56 Mostly Cloudy with Nearby Thunderstorms 76 24.4 62 16.7 62 62 WNW 10 17 29.97 1015 10 16 N/A
6:59 pm 18:59 Mostly Cloudy with Thunderstorms 75 23.9 63 17.2 66 66 WSW 10 17 29.97 1015 10 16 N/A
7:30 pm 19:30 Mostly Cloudy with Light Rain 73 22.8 67 19.4 81 81 S 6 9 29.94 1014 10 16 0.01 0.25
7:52 pm 19:52 Mostly Cloudy 74 23.3 67 19.4 79 79 S 8 13 29.93 1014 10 16 0.01 0.25
8:52 pm 20:52 Mostly Cloudy 73 22.8 67 19.4 81 81 W 5 7 29.94 1014 10 16 N/A
9:52 pm 21:52 Mostly Cloudy 72 22.2 67 19.4 84 84 N 6 9 29.95 1014 10 16 N/A
10:52 pm 22:52 Mostly Clear 69 20.6 66 18.9 90 90 WSW 6 9 29.96 1015 8 13 N/A
11:52 pm 23:52 Cloudy 71 21.7 66 18.9 84 84 WSW 5 7 29.96 1015 10 16 N/A

Powered by AerisWeather